Location: Chantarel
(45.1638°N, 1.7873°E)
Time: 06:58:37
(UTC+00:00)

IRS-1A Rocket - Pass Details

Date: 03 March 2021
Orbit: 851 x 931 km, 99.2° (Epoch: 10 April)

Event Time Altitude Azimuth Distance (km) Brightness Sun altitude
Exits shadow 19:46:40 31° 156° (SSE) 1,498 5.2 -22.5°
Maximum altitude 19:49:31 81° 73° (ENE) 890 4.1 -22.9°
Drops below altitude 10° 19:55:06 10° 347° (NNW) 2,512 7.0 -23.9°
Sets 19:57:28 0° 347° (NNW) 3,445 7.8 -24.3°
